User: anonymous   Login
Location: The Jewett Observatory
(46.7288°N, 117.1525°W)
Time: 05:50:16
(UTC-07:00)
Language:

Cosmos 1633 - Orbit

View from above orbital plane
View from above orbital plane
View from above satellite
View from above satellite

Ground track
Ground track

The orbit data is extracted from the following two-line orbital elements,

1 15592U 85020A   17291.83971564  .00001574  00000-0  54600-4 0  9996
2 15592  82.5410 195.3917 0015288  98.2929 262.0045 15.28912491783180
Epoch (UTC): 18 October 2017 20:09:11
Eccentricity: 0.0015288
inclination: 82.5410°
perigee height: 468 km
apogee height: 489 km
right ascension of ascending node: 195.3917°
argument of perigee: 98.2929°
revolutions per day: 15.28912491
mean anomaly at epoch: 262.0045°
orbit number at epoch: 78318

The dashed part of the orbit path shows where the satellite is in the earth's shadow,  

DLR